Regional Weather Roundup
Issued by NWS Wakefield, VA

Home | Current Version | Previous Version | Text Only | Print | Product List | Glossary Off
Versions: 1 2 3 4 5 6 7 8 9 10 11 12 13 14 15 16 17 18 19 20 21 22 23 24 25 26 27

000
ASUS41 KAKQ 190215
RWRAKQ

REGIONAL WEATHER ROUNDUP
NATIONAL WEATHER SERVICE WAKEFIELD VA
1000 PM EDT FRI AUG 18 2017

Note: "fair" indicates few or no clouds below 12,000 feet with no
significant weather and/or obstructions to visibility. * = Denotes
station may not report precipitation (e.g., rain,snow,etc.),
thunder or fog.

VAZ042-051-052>054-056-190300-
NORTHERN VIRGINIA

CITY           SKY/WX    TMP DP  RH WIND       PRES   REMARKS
WASH NATIONAL  CLOUDY    79  77  94 SE6       29.87R
DULLES         CLOUDY    76  76 100 SE6       29.87R
FORT BELVOIR   CLOUDY    77  75  95 CALM      29.85R
QUANTICO       CLOUDY    80  79  96 S8        29.87R
FREDERICKSBRG* CLOUDY    77  77 100 CALM      29.85S
STAFFORD*      CLOUDY    77  76  97 E3        29.90R
WARRENTON      CLOUDY    77  72  84 CALM      29.86R
CULPEPER*      CLOUDY    79  75  89 CALM      29.87R
MANASSAS*      CLOUDY    77  75  93 SE3       29.87R
LEESBURG*      CLOUDY    77  77 100 CALM      29.88R
WINCHESTER     CLOUDY    72  70  94 CALM      29.88R
FRONT ROYAL*   CLOUDY    73  72  94 S3        29.87R
LURAY*         CLOUDY    73  73 100 CALM      29.89R
$$

VAZ048-049-060>072-079>083-190300-
CENTRAL AND SOUTH CENTRAL VIRGINIA

CITY           SKY/WX    TMP DP  RH WIND       PRES   REMARKS
RICHMOND       TSTM      74  73  97 S7        29.87F
CHESTERFIELD*  TSTM      76  74  93 S6        29.88R
PETERSBURG*    CLOUDY    79  71  75 NE6       29.88R THUNDER
HANOVER        CLOUDY    75  72  90 SE5       29.88S
TAPPAHANNOCK*  CLOUDY    76  76 100 E5        29.89R
QUINTON*       CLOUDY    74  74 100 S9        29.88F FOG
CHARLOTTSVILLE MOCLDY    80  77  90 CALM      29.87R
GORDONSVILLE*  MOCLDY    77  77  99 CALM      29.86R
ORANGE*        CLOUDY    73  73 100 CALM      29.87R
LOUISA*        CLOUDY    75  73  94 CALM      29.87R
BUMPASS*       FAIR      74  74 100 CALM      29.87R
FARMVILLE*     CLOUDY    79  76  91 SW3       29.86R
CREWE*         CLOUDY    78  74  86 CALM      29.87R
FORT PICKETT*  CLOUDY   N/A N/A N/A NW3       29.88R
CHASE CITY*    CLOUDY    77  76  99 N7        29.88R
CLARKSVILLE*   CLOUDY    79  73  83 NW5       29.88R
SOUTH HILL*    CLOUDY    82  78  87 W6        29.92R THUNDER
LAWRENCEVILLE* FAIR      82  76  84 S3        29.85S
EMPORIA*       MOCLDY    81  77  89 SE5       29.87R
$$

VAZ088>098-190300-
SOUTHEAST VIRGINIA

CITY           SKY/WX    TMP DP  RH WIND       PRES   REMARKS
NORFOLK        CLEAR     84  77  79 S9        29.88R
VIRGINIA BEACH PTCLDY    79  75  87 SW6       29.88R
NORFOLK NAVAL  PTCLDY    84  76  76 S7        29.89R
WEST POINT*    CLOUDY    74  70  88 W6        29.90R
SALUDA*        CLOUDY    73  73 100 SW3       29.90R
NEWPORT NEWS   MOCLDY    83  76  79 S8        29.87R
LANGLEY AFB    CLOUDY    83  77  81 S9        29.88R
FORT EUSTIS    CLOUDY    83  77  82 NW15      29.88R
WILLIAMSBURG*  CLOUDY    82  72  69 NW10G20   29.92R
HR EXEC AP*    FAIR      81  75  83 S6        29.85R
FRANKLIN*      CLEAR     80  76  88 S3        29.88R
US460-WAKEFLD  MOCLDY    82  79  90 N6        29.89R
$$

VAZ020-022-025-037-045-190300-
WEST CENTRAL AND SOUTHWEST VIRGINIA

CITY           SKY/WX    TMP DP  RH WIND       PRES   REMARKS
STAUNTON*      CLOUDY    78  70  78 CALM      29.92R
WAYNESBORO*    CLOUDY    78  72  83 W6        29.92R
HOT SPRINGS VA MOCLDY    66  66 100 W16       30.07R
LYNCHBURG      CLOUDY    76  73  91 SE3       29.91R
DANVILLE       CLOUDY    78  74  87 SW5       29.92R
SOUTH BOSTON*  CLOUDY    78  76  95 CALM      29.88R
MARTINSVILLE   CLOUDY    74  73  97 CALM      29.96R
ROANOKE        CLEAR     76  66  71 VRB3      29.96R
BLACKSBURG     CLEAR     68  67  97 CALM      30.03R
DUBLIN*        CLEAR     71  67  87 NW3       30.02R
MARION*        CLOUDY    69  61  75 CALM      30.06R
HILLSVILLE*    CLEAR     70  62  76 CALM      30.03R
RICHLANDS*     MOCLDY    71  62  72 W6        30.06R
WISE*          CLEAR     70  61  73 W5        30.07R
ABINGDON*      PTCLDY    74  68  80 NW5       30.02R
$$

MDZ021>025-VAZ099-100-190300-
SOUTHERN MARYLAND AND THE DELMARVA PENINSULA

CITY           SKY/WX    TMP DP  RH WIND       PRES   REMARKS
PATUXENT RIVER TSTM      73  73 100 S3        29.86F
BAY BRIDGE APT CLOUDY    77  75  94 S6        29.85R
LEONARDTOWN    CLOUDY    72  70  94 CALM      29.83R
DOVER          LGT RAIN  73  73 100 S13       29.86F
GEORGETOWN     TSTM      74  72  93 SW5       29.92R FOG
EASTON         NOT AVBL
CAMBRIDGE      CLOUDY    73  72  94 VRB5G14   29.85F
SALISBURY      HVY RAIN  75  73  93 N13G20    29.93R FOG
OCEAN CITY     CLOUDY    79  72  79 N8G18     29.90R
WALLOPS ISLAND CLOUDY    80  77  90 NW18G28   29.91R
ACCOMACK*      CLOUDY    81  76  83 NW15G21   29.91R
$$

NCZ012>017-030>032-190300-
NORTH CENTRAL AND EASTERN NORTH CAROLINA

CITY           SKY/WX    TMP DP  RH WIND       PRES   REMARKS
ROANOKE RAPIDS FAIR      81  77  89 S3        29.86R
RALEIGH        PTCLDY    87  73  62 SW10      29.89R
ELIZABETH CITY CLEAR     82  81  96 S8        29.89R HX  95
AHOSKIE*         N/A     79  78  96 S3        29.88R
EDENTON*       CLEAR     85  79  83 CALM      29.89R HX  97
CURRITUCK*     CLEAR     82  77  86 S3        29.90R
KILL DEVIL HLS CLEAR     82  79  89 CALM      29.90R
MANTEO         CLEAR     83  80  91 SW16      29.91R HX  95
CAPE HATTERAS  PTCLDY    84  81  90 SW13G23   29.93R HX  99
TARBORO*       NOT AVBL
GOLDSBORO      CLEAR     86  80  81 S9        29.88R HX 102
WASHINGTON     CLEAR     83  78  85 S5        29.90R
GREENVILLE     CLEAR     86  79  79 SW9       29.90R HX  99
NEW BERN       CLEAR     82  79  90 S7        29.92R
WILMINGTON     CLEAR     84  79  85 S12       29.91R HX  96
$$

VAZ048-190300-
ELSEWHERE

CITY           SKY/WX    TMP DP  RH WIND       PRES   REMARKS
HARRISBURG PA  CLOUDY    76  75  97 SE6       29.82R
BALTIMORE      CLOUDY    75  75 100 S5        29.85R
ANNAPOLIS      CLOUDY    79  79 100 S6        29.85R
ANDREWS AFB    CLOUDY    75  74  95 S5        29.86R
PHILADELPHIA   CLOUDY    76  73  91 SW10      29.83R
HENDERSON NC   MOCLDY    81  71  72 CALM      29.90R
GREENSBORO     CLOUDY    78  74  87 NW10      29.92R
ROCKY MOUNT    CLEAR     84  75  74 S9        29.87R
$$

VAZ100-190300-
MARINE

STATION/POSITION TIME  TEMP    WIND        PRES    WAVE   SWELL
                       AIR SEA DIR/SP/G            HT/PER HT/PER
                 (UTC) (F)     (DEG/KT/KT) (MB)    (FT/S) (FT/S)
BRANDYWINE LGT   0142   74     230/ 12/ 15 1012.4R
CAPE MAY NJ      0136   75 80  250/ 14/ 15 1011.1R
LEWES DE         0142   73 78  220/  5/  7 1012.1F
15NM E FENWICK I 0150   78 78  290/ 19/ 23 1012.6R   3/ 5   2/ 8
OCEAN-CITY-INLET 0142   79 75   10/ 16/ 19 1012.6R
WACHAPREAGUE VA  0142   83 85  230/  5/  7 1011.7R
THOMAS POINT MD  0200   78 80  170/ 14/ 15   N/A
GOOSES REEF MD   0200   76 80              1011.8    1/ 3
COVE POINT MD    0142   74     190/ 11/ 12 1011.9F
SOLOMONS ISLAND  0142   73 81  180/  5/  5   N/A
BISHOPS HEAD MD  0142   76 84  300/ 10/ 13 1012.1S
PINEY POINT MD   0142          220/  6/  8   N/A
POTOMAC MD       0200   75 82              1011.1    1/ 3
CAMBRIDGE MD     0142   73 82              1012.1S
LEWISETTA VA     0142   74 83  340/  4/  5 1011.7R
RAPPAHANNOCK LGT 0142          180/ 14/ 17 1012.0R
STINGRAY PT      0200   80 82  340/ 14/ 19 1012.7    1/ 2
YORK RVR RNG VA  0142   84     210/ 11/ 12 1011.8R
YORKTOWN VA      0142   84 82  200/  7/  8 1011.0R
JAMESTOWN VA     0200      84  330/ 14/ 19   N/A     1
DOMINION TERM VA 0142   84     190/  8/ 10 1011.6R
KIPTOPEKE VA     0142      81  190/  7/  9   N/A
CHES BAY BRIDGE  0142   83 76  220/ 10/ 13 1011.5R
CAPE HENRY VA    0142   82     200/  7/ 11   N/A
WILLOUBY STN VA  0142   84     210/ 11/ 13 1011.5R
S CRANEY ISL VA  0142   83     200/  8/ 12 1011.4R
CAPE HENRY BUOY  0200      80                N/A     2/ 5
1ST LANDING BUOY 0200   82 78              1011.6    1/ 3
64NM E OF VA BCH 0150   80 78  210/ 14/ 17 1013.5R   4/ 5   2/ 9
DUCK PIER NC     0142   83 73  190/ 13/ 19 1012.0R
44100 DUCK FRF   0105      80                N/A     2/ 4
44056 DUCK FRF   0200      78                N/A     2/ 8
OREGON INLET NC  0142   83 80  200/ 20/ 23 1013.0R
HATTERAS NC      0142   83 84  210/ 13/ 19 1013.4R
DIAMOND SHLS NC  0150   85 85  210/ 19/ 25 1013.2R   5/ 5
CAPE LOOKOUT NC  0200   84     210/ 13/ 17 1013.2R
$$




USA.gov is the U.S. government's official web portal to all federal, state and local government web resources and services.